Location: Congrier
(47.8099°N, 1.1170°W)
Time: 23:50:50
(UTC+00:00)

BREEZE-M DEB (TANK) - Pass Details

Date: 28 January 2023
Orbit: 428 x 13835 km, 45.9° (Epoch: 31 March)

Event Time Altitude Azimuth Distance (km) Brightness Sun altitude
Rises 17:49:01 0° 249° (WSW) 2,385 8.0 -8.7°
Reaches altitude 10° 17:50:41 10° 244° (WSW) 1,562 6.2 -9.0°
Maximum altitude 17:53:34 58° 164° (SSE) 671 2.7 -9.5°
Enters shadow 17:58:37 12° 86° (E) 2,737 5.2 -10.3°
